Date String (YYYY-MM-DD hh:mm:ss) UTC,Instrument flags,Ambient pressure (hPa),Sample flow (lpm),Bypass flow (lpm),Sample temperature (°C),Ambient temperature (°C),ASC tube jacket temperature (°C),LED temperature (°C),Box temperature (°C),Sample RH (%),Span deviation,Mass concentration (μg/m³),Mass concentration (μg/m³),Mass concentration (μg/m³)
DateTimeUTC,F1_M11,P_M11,Q1_M11,Q2_M11,T1_M11,T2_M11,T3_M11,T4_M11,T5_M11,U1_M11,ZSPAN_M11,X0_M11,X2_M11,X1_M11
2022-03-09 13:00:00,,0819.9,4.99,0.00,22.9,23.5,00.0,31.8,24.8,08.0,0000.0,0006.23,0002.35,0001.80
2022-03-09 13:01:00,,0820.0,5.01,0.00,23.0,23.4,00.0,31.9,24.9,07.9,0000.0,0006.36,0002.35,0001.78
2022-03-09 13:02:00,,0820.0,5.00,0.00,23.0,23.0,00.0,31.9,24.8,07.9,0000.0,0005.69,0002.31,0001.75
2022-03-09 13:03:00,,0819.9,5.00,0.00,22.9,22.6,00.0,31.8,24.6,07.9,0000.0,0005.26,0002.24,0001.73
2022-03-09 13:04:00,,0819.9,5.01,0.00,22.8,22.3,00.0,31.8,24.5,07.9,0000.0,0005.15,0002.20,0001.73
2022-03-09 13:05:00,,0819.9,4.99,0.00,22.8,22.0,00.0,31.8,24.4,07.9,0000.0,0004.88,0002.19,0001.72
2022-03-09 13:06:00,,0820.0,5.02,0.00,22.7,21.9,00.0,31.8,24.3,07.9,0000.0,0004.73,0002.18,0001.70
2022-03-09 13:07:00,,0820.0,4.99,0.00,22.8,22.6,00.0,31.8,24.5,07.8,0000.0,0004.63,0002.12,0001.66
2022-03-09 13:08:00,,0820.1,5.00,0.00,22.9,23.3,00.0,31.9,24.7,07.7,0000.0,0004.53,0002.07,0001.63
2022-03-09 13:09:00,,0820.0,5.01,0.00,23.1,23.9,00.0,31.9,25.0,07.6,0000.0,0003.97,0001.98,0001.60
2022-03-09 13:10:00,,0820.0,5.01,0.00,23.1,23.6,00.0,31.9,25.0,07.6,0000.0,0003.86,0001.95,0001.56
2022-03-09 13:11:00,,0820.0,4.98,0.00,23.1,23.1,00.0,31.9,24.9,07.6,0000.0,0004.57,0001.92,0001.53
2022-03-09 13:12:00,,0819.9,5.00,0.00,23.0,22.7,00.0,31.9,24.7,07.6,0000.0,0004.31,0001.86,0001.50
2022-03-09 13:13:00,,0819.9,5.01,0.00,22.9,22.4,00.0,31.9,24.6,07.6,0000.0,0004.20,0001.84,0001.46
2022-03-09 13:14:00,,0819.9,4.99,0.00,22.9,22.1,00.0,31.9,24.5,07.6,0000.0,0004.83,0001.85,0001.44
2022-03-09 13:15:00,,0820.0,5.00,0.00,22.8,21.8,00.0,31.9,24.4,07.6,0000.0,0005.10,0001.82,0001.40
2022-03-09 13:16:00,,0820.0,5.00,0.00,22.8,22.1,00.0,31.9,24.4,07.5,0000.0,0004.87,0001.73,0001.35
2022-03-09 13:17:00,,0820.0,5.00,0.00,22.9,22.9,00.0,31.9,24.6,07.5,0000.0,0004.56,0001.66,0001.31
2022-03-09 13:18:00,,0820.1,4.99,0.00,23.0,23.5,00.0,32.0,24.9,07.4,0000.0,0004.54,0001.63,0001.29
2022-03-09 13:19:00,,0819.9,5.01,0.00,23.1,23.4,00.0,32.0,24.9,07.4,0000.0,0004.46,0001.59,0001.27
2022-03-09 13:20:00,,0819.9,5.00,0.00,23.1,23.1,00.0,32.0,24.9,07.4,0000.0,0004.51,0001.59,0001.26
2022-03-09 13:21:00,,0819.9,5.00,0.00,23.0,22.7,00.0,32.0,24.7,07.4,0000.0,0004.32,0001.59,0001.26
2022-03-09 13:22:00,,0819.9,4.99,0.00,22.9,22.4,00.0,31.9,24.6,07.4,0000.0,0003.40,0001.58,0001.25
2022-03-09 13:23:00,,0820.0,5.02,0.00,22.9,22.0,00.0,31.9,24.4,07.5,0000.0,0003.46,0001.61,0001.25
2022-03-09 13:24:00,,0820.1,4.99,0.00,22.8,21.7,00.0,31.9,24.3,07.5,0000.0,0003.35,0001.61,0001.26
2022-03-09 13:25:00,,0820.0,4.99,0.00,22.8,21.9,00.0,31.9,24.3,07.6,0000.0,0002.71,0001.58,0001.25
2022-03-09 13:26:00,,0820.1,5.01,0.00,22.8,22.7,00.0,31.9,24.6,07.5,0000.0,0002.43,0001.59,0001.26
2022-03-09 13:27:00,,0820.1,4.99,0.00,23.0,23.5,00.0,32.0,24.8,07.5,0000.0,0002.46,0001.61,0001.26
2022-03-09 13:28:00,,0820.1,5.01,0.00,23.0,23.3,00.0,32.0,24.9,07.5,0000.0,0002.44,0001.60,0001.26
2022-03-09 13:29:00,,0820.0,4.99,0.00,23.0,22.9,00.0,32.0,24.8,07.5,0000.0,0002.61,0001.64,0001.27
2022-03-09 13:30:00,,0820.0,5.01,0.00,22.9,22.5,00.0,31.9,24.6,07.5,0000.0,0002.61,0001.64,0001.27
2022-03-09 13:31:00,,0820.0,4.99,0.00,22.9,22.1,00.0,31.9,24.5,07.6,0000.0,0002.67,0001.67,0001.26
2022-03-09 13:32:00,,0820.1,5.01,0.00,22.8,21.8,00.0,31.9,24.4,07.6,0000.0,0002.56,0001.67,0001.25
2022-03-09 13:33:00,,0820.1,4.98,0.00,22.7,21.7,00.0,31.9,24.3,07.5,0000.0,0003.87,0001.71,0001.24
2022-03-09 13:34:00,,0820.2,5.00,0.00,22.8,22.3,00.0,31.9,24.4,07.5,0000.0,0004.69,0001.74,0001.23
2022-03-09 13:35:00,,0820.2,5.00,0.00,22.9,23.1,00.0,31.9,24.7,07.4,0000.0,0004.62,0001.70,0001.20
2022-03-09 13:36:00,,0820.2,4.99,0.00,23.0,23.5,00.0,31.9,24.9,07.4,0000.0,0004.60,0001.68,0001.19
2022-03-09 13:37:00,,0820.2,5.00,0.00,23.0,23.2,00.0,31.9,24.8,07.3,0000.0,0004.48,0001.63,0001.16
2022-03-09 13:38:00,,0820.2,5.00,0.00,22.9,22.7,00.0,31.9,24.7,07.3,0000.0,0004.44,0001.61,0001.13
2022-03-09 13:39:00,,0820.2,5.01,0.00,22.9,22.3,00.0,31.9,24.5,07.3,0000.0,0004.43,0001.59,0001.11
2022-03-09 13:40:00,,0820.2,4.99,0.00,22.8,21.9,00.0,31.9,24.4,07.3,0000.0,0004.35,0001.55,0001.08
2022-03-09 13:41:00,,0820.2,4.99,0.00,22.8,22.1,00.0,31.9,24.3,07.3,0000.0,0004.40,0001.55,0001.07
2022-03-09 13:42:00,,0820.2,5.00,0.00,22.9,22.8,00.0,31.9,24.6,07.3,0000.0,0004.35,0001.52,0001.06
2022-03-09 13:43:00,,0820.1,5.01,0.00,23.0,23.5,00.0,31.9,24.8,07.2,0000.0,0004.31,0001.49,0001.06
2022-03-09 13:44:00,,0820.2,5.00,0.00,23.1,23.4,00.0,31.9,24.9,07.1,0000.0,0003.01,0001.45,0001.07
2022-03-09 13:45:00,,0820.1,5.01,0.00,23.0,23.0,00.0,31.9,24.8,07.1,0000.0,0002.17,0001.39,0001.06
2022-03-09 13:46:00,,0820.2,5.00,0.00,23.0,22.6,00.0,31.9,24.7,07.1,0000.0,0002.26,0001.43,0001.07
2022-03-09 13:47:00,,0820.2,5.00,0.00,22.9,22.1,00.0,31.9,24.5,07.2,0000.0,0002.27,0001.43,0001.07
2022-03-09 13:48:00,,0820.2,4.99,0.00,22.8,21.7,00.0,31.9,24.3,07.2,0000.0,0002.38,0001.48,0001.08
2022-03-09 13:49:00,,0820.1,5.01,0.00,22.7,21.5,00.0,31.8,24.2,07.2,0000.0,0003.24,0001.49,0001.09
2022-03-09 13:50:00,,0820.1,4.99,0.00,22.7,22.1,00.0,31.8,24.3,07.2,0000.0,0003.30,0001.48,0001.10
2022-03-09 13:51:00,,0820.1,5.00,0.00,22.8,22.9,00.0,31.9,24.5,07.1,0000.0,0003.50,0001.48,0001.11
2022-03-09 13:52:00,,0820.2,5.00,0.00,23.0,23.6,00.0,31.9,24.8,07.0,0000.0,0003.56,0001.46,0001.12
2022-03-09 13:53:00,,0820.2,5.01,0.00,23.0,23.5,00.0,31.9,24.9,07.0,0000.0,0003.61,0001.46,0001.12
2022-03-09 13:54:00,,0820.2,5.00,0.00,23.0,23.1,00.0,31.9,24.8,07.0,0000.0,0003.54,0001.43,0001.11
2022-03-09 13:55:00,,0820.3,5.00,0.00,22.9,22.6,00.0,31.9,24.6,07.0,0000.0,0003.56,0001.42,0001.10
2022-03-09 13:56:00,,0820.3,5.00,0.00,22.9,22.2,00.0,31.9,24.5,07.1,0000.0,0003.91,0001.42,0001.10
2022-03-09 13:57:00,,0820.3,5.00,0.00,22.8,21.8,00.0,31.9,24.4,07.1,0000.0,0003.92,0001.42,0001.11
2022-03-09 13:58:00,,0820.3,5.01,0.00,22.7,21.6,00.0,31.8,24.2,07.2,0000.0,0003.94,0001.44,0001.11
2022-03-09 13:59:00,,0820.3,5.00,0.00,22.7,21.7,00.0,31.8,24.2,07.3,0000.0,0004.25,0001.41,0001.11
